Effective Sunday, March 17, 2024, the National Weather Service National Data Buoy Center will discontinue its Dial-A-Buoy Interactive Voice Response system. For more information, see Service Change Notice 24-06 (PDF).

Station KCXA2 - King Cove Image indicating link to RSS feed of recent meteorological observations for station KCXA2


Conditions at KCXA2 as of
(10:17 pm AKST on 02/22/2024)
0717 GMT on 02/23/2024:
     

Click on the graph icon in the table below to see a time series plot of the last five days of that observation.

5-day plot - Wind Direction Wind Direction (WDIR):SSW ( 210 deg true )
5-day plot - Wind Speed Wind Speed (WSPD): 11 kts
5-day plot - Wind Gust Wind Gust (GST): 17 kts
5-day plot - Atmospheric Pressure Atmospheric Pressure (PRES):29.75 in
5-day plot - Air Temperature Air Temperature (ATMP): 37.0 °F
5-day plot - Dew Point Dew Point (DEWP): 32.4 °F
5-day plot - Wind Chill Wind Chill (CHILL): 28.8 °F
5-day plot - Wind Speed at 10 Meters Wind Speed at 10 meters (WSPD10M): 10 kts
5-day plot - Wind Speed at 20 Meters Wind Speed at 20 meters (WSPD20M): 12 kts
5-day plot -  Wind Speed, Wind Gust and Atmospheric Pressure Combined plot of Wind Speed, Gust, and Air Pressure
Previous observations
TIME
(AKST)
5-day plot - Wind Direction
WDIR
 
5-day plot - Wind Speed
WSPD
kts
5-day plot - Wind Gust
GST
kts
5-day plot - Wave Height
WVHT
ft
5-day plot - Dominant Wave Period
DPD
sec
5-day plot - Average Wave Period
APD
sec
5-day plot - Mean Wave Direction
MWD
 
5-day plot - Atmospheric Pressure
PRES
in
5-day plot - Pressure Tendency
PTDY
in
5-day plot - Air Temperature
ATMP
°F
5-day plot - Water Temperature
WTMP
°F
5-day plot - Dew Point
DEWP
°F
5-day plot - Salinity
SAL
psu
5-day plot - Visibility
VIS
nmi
5-day plot - Tide (above MLLW)
TIDE
ft
2024-02-22 10:08 pmSSW 11 20----29.75- 37.0- 32.2---
2024-02-22 09:58 pmSSW 12 19----29.75- 37.0- 31.8---
2024-02-22 09:48 pmSSW 11 22----29.75- 37.0- 31.6---
2024-02-22 09:40 pmSSW 11 22----29.75- 37.0- 31.6---
2024-02-22 09:31 pmSSW 12 28----29.75- 36.9- 31.5---
2024-02-22 09:22 pmSSW 11 18----29.75- 36.9- 31.3---
2024-02-22 09:13 pmSSW 11 20----29.75- 36.9- 31.1---
2024-02-22 09:00 pm SW 9 20----29.75- 36.7- 31.5---
2024-02-22 08:51 pm SW 7 14----29.75- 36.7- 31.3---
2024-02-22 08:43 pmSSW 6 15----29.75- 36.7- 30.7---
2024-02-22 08:34 pmSSW 7 20----29.75- 36.9- 30.4---
2024-02-22 08:26 pmSSW 9 19----29.75- 36.9- 30.6---
2024-02-22 08:17 pmSSW 10 23----29.75- 36.9- 30.6---
2024-02-22 08:05 pmSSW 10 19----29.75- 36.9- 30.6---
2024-02-22 07:54 pmSSW 11 21----29.75- 36.9- 30.2---
2024-02-22 07:46 pmSSW 12 23----29.75- 36.9- 30.2---
2024-02-22 07:36 pm SW 10 17----29.74- 37.0- 30.4---
2024-02-22 07:26 pmSSW 12 27----29.73- 37.0- 30.0---
2024-02-22 07:15 pmSSW 13 23----29.73- 37.2- 30.0---
2024-02-22 06:58 pmSSW 14 27----29.73- 37.2- 29.3---
2024-02-22 06:45 pmSSW 15 28----29.73- 37.2- 29.3---
2024-02-22 06:35 pmSSW 16 28----29.72- 37.2- 29.1---
2024-02-22 06:25 pmSSW 15 28----29.72- 37.2- 29.7---
2024-02-22 06:15 pmSSW 15 29----29.72- 37.2- 30.7---
2024-02-22 06:05 pmSSW 15 30----29.72- 37.2- 30.4---
2024-02-22 05:55 pmSSW 15 29----29.72- 37.4- 29.7---
2024-02-22 05:45 pmSSW 15 26----29.72- 37.6- 30.0---
2024-02-22 05:35 pmSSW 17 34----29.72- 37.6- 29.7---
2024-02-22 05:25 pmSSW 18 34----29.71- 37.6- 29.5---
2024-02-22 05:15 pmSSW 16 27----29.71- 37.8- 29.8---
2024-02-22 05:05 pmSSW 16 29----29.71- 37.9- 29.8---
2024-02-22 04:55 pmSSW 17 30----29.71- 37.9- 29.5---
2024-02-22 04:45 pmSSW 19 32----29.70- 37.9- 29.3---
2024-02-22 04:35 pmSSW 18 32----29.70- 37.9- 29.5---
2024-02-22 04:25 pmSSW 18 30----29.70- 37.9- 30.0---
2024-02-22 04:15 pmSSW 17 33----29.70- 37.8- 30.7---
2024-02-22 04:05 pmSSW 17 30----29.69- 37.9- 30.6---
2024-02-22 03:55 pmSSW 16 37----29.69- 37.8- 30.7---
2024-02-22 03:45 pmSSW 17 37----29.69- 37.9- 30.9---
2024-02-22 03:35 pmSSW 17 27----29.69- 37.9- 30.9---
2024-02-22 03:25 pmSSW 17 31----29.68- 37.8- 30.9---
2024-02-22 03:15 pmSSW 18 36----29.68- 37.8- 30.7---
2024-02-22 02:55 pmSSW 19 35----29.67- 37.8- 29.5---
2024-02-22 02:45 pmSSW 21 37----29.67- 37.8- 29.3---
2024-02-22 02:35 pmSSW 19 31----29.66- 37.8- 30.2---
2024-02-22 02:27 pmSSW 17 32----29.66- 37.8- 30.7---
2024-02-22 02:19 pmSSW 19 36----29.66- 37.6- 30.2---
2024-02-22 02:12 pmSSW 19 36----29.66- 37.6- 30.2---
2024-02-22 01:57 pmSSW 19 33----29.65- 37.2- 29.8---
2024-02-22 01:47 pmSSW 19 38----29.65- 37.2- 30.0---
2024-02-22 01:39 pmSSW 17 34----29.65- 37.2- 30.2---
2024-02-22 01:29 pmSSW 18 37----29.65- 37.0- 30.4---
2024-02-22 01:20 pmSSW 18 37----29.65- 37.0- 30.4---
2024-02-22 01:10 pmSSW 17 25----29.64- 36.7- 31.3---
2024-02-22 12:57 pmSSW 18 31----29.64- 37.0- 29.3---
2024-02-22 12:45 pmSSW 19 37----29.63- 36.7- 29.8---
2024-02-22 12:35 pmSSW 17 32----29.63- 36.7- 29.3---
2024-02-22 12:25 pmSSW 18 33----29.62- 36.7- 29.1---
2024-02-22 12:15 pmSSW 18 36----29.62- 36.5- 29.1---
2024-02-22 12:05 pmSSW 19 34----29.62- 36.3- 28.9---
2024-02-22 11:55 amSSW 16 30----29.62- 36.5- 29.3---
2024-02-22 11:45 amSSW 15 29----29.62- 36.3- 28.6---
2024-02-22 11:35 amSSW 18 35----29.61- 36.0- 28.6---
2024-02-22 11:25 amSSW 20 38----29.61- 36.1- 28.0---
2024-02-22 11:15 amSSW 20 32----29.60- 36.1- 28.8---
2024-02-22 11:05 amSSW 16 24----29.59- 36.0- 29.1---
2024-02-22 10:55 amSSW 15 28----29.59- 35.6- 28.8---
2024-02-22 10:45 amSSW 15 29----29.59- 35.1- 28.9---
2024-02-22 10:35 amSSW 17 26----29.59- 34.5- 30.6---
2024-02-22 10:25 amSSW 17 35----29.59- 35.6- 28.6---
2024-02-22 10:15 amSSW 18 33----29.59- 35.6- 28.8---
2024-02-22 10:05 amSSW 17 34----29.58- 35.4- 28.2---
2024-02-22 09:55 amSSW 17 32----29.58- 35.4- 28.0---
2024-02-22 09:45 amSSW 19 36----29.58- 35.4- 28.0---
2024-02-22 09:35 am SW 15 26----29.57- 35.6- 27.7---
2024-02-22 09:26 am SW 15 36----29.57- 35.8- 27.9---
2024-02-22 09:16 amSSW 18 33----29.57- 35.8- 27.5---
2024-02-22 09:07 amSSW 17 37----29.56- 35.8- 27.3---
2024-02-22 08:55 amSSW 19 33----29.56- 35.4- 27.5---
2024-02-22 08:45 amSSW 18 29----29.55- 34.9- 28.6---
2024-02-22 08:35 amSSW 18 28----29.54- 34.7- 28.8---
2024-02-22 08:25 amSSW 16 29----29.54- 34.7- 29.1---
2024-02-22 08:15 amSSW 17 31----29.54- 34.5- 28.6---
2024-02-22 08:05 amSSW 16 28----29.54- 34.0- 28.8---
2024-02-22 07:55 amSSW 17 27----29.54- 34.2- 29.1---
2024-02-22 07:45 amSSW 16 26----29.53- 34.2- 28.0---
2024-02-22 07:35 amSSW 16 26----29.53- 33.8- 28.6---
2024-02-22 07:25 amSSW 13 28----29.54- 33.1- 28.6---
2024-02-22 07:15 amSSW 16 27----29.54- 33.1- 28.8---
2024-02-22 07:05 am SW 15 27----29.53- 34.3- 28.4---
2024-02-22 06:55 am SW 14 28----29.52- 34.9- 25.9---
2024-02-22 06:45 am SW 14 30----29.52- 34.7- 25.9---
2024-02-22 06:35 amSSW 17 32----29.52- 34.7- 26.8---
2024-02-22 06:25 amSSW 11 23----29.52- 34.9- 25.2---
2024-02-22 06:15 amSSW 13 25----29.51- 34.9- 23.9---
2024-02-22 06:05 amSSW 12 26----29.51- 34.7- 25.0---
2024-02-22 05:55 amSSW 15 28----29.51- 34.5- 26.8---
2024-02-22 05:45 amSSW 13 27----29.51- 34.3- 27.1---
2024-02-22 05:35 amSSW 15 29----29.51- 34.3- 27.3---
2024-02-22 05:25 amSSW 16 30----29.50- 34.5- 27.1---
2024-02-22 05:15 amSSW 15 32----29.50- 34.2- 27.0---
2024-02-22 05:05 amSSW 12 21----29.50- 34.0- 26.6---
2024-02-22 04:55 amSSW 13 32----29.49- 34.0- 26.4---
2024-02-22 04:45 amSSW 14 23----29.49- 34.0- 25.9---
2024-02-22 04:35 amSSW 14 24----29.49- 33.8- 25.3---
2024-02-22 04:25 am SW 9 19----29.49- 33.4- 21.6---
2024-02-22 04:15 amSSW 9 23----29.48- 33.6- 19.6---
2024-02-22 04:05 amSSW 13 30----29.47- 33.6- 18.9---
2024-02-22 03:55 am S 18 30----29.46- 33.6- 19.4---
2024-02-22 03:45 am S 20 37----29.45- 33.8- 19.6---
2024-02-22 03:35 amSSW 17 35----29.46- 34.2- 20.3---
2024-02-22 03:25 amSSW 17 34----29.46- 34.2- 21.0---
2024-02-22 03:15 amSSW 17 40----29.45- 34.5- 20.3---
2024-02-22 03:05 amSSW 18 36----29.44- 35.1- 20.8---
2024-02-22 02:55 amSSW 20 44----29.43- 35.2- 23.4---
2024-02-22 02:45 amSSW 17 30----29.43- 35.2- 25.0---
2024-02-22 02:35 amSSW 16 33----29.43- 35.2- 24.8---
2024-02-22 02:25 amSSW 16 35----29.42- 35.2- 24.3---
2024-02-22 02:15 amSSW 15 28----29.41- 35.2- 24.8---
2024-02-22 02:05 amSSW 16 26----29.41- 35.2- 25.0---
2024-02-22 01:55 am S 17 30----29.41- 35.1- 25.5---
2024-02-22 01:45 amSSW 16 29----29.41- 35.1- 25.7---
2024-02-22 01:35 amSSW 16 38----29.41- 34.9- 27.1---
2024-02-22 01:25 amSSW 14 30----29.41- 34.7- 27.9---
2024-02-22 01:15 amSSW 13 37----29.41- 34.3- 27.7---
2024-02-22 01:05 amSSW 16 28----29.40- 34.2- 29.1---
2024-02-22 12:55 amSSW 18 28----29.40- 34.2- 28.8---
2024-02-22 12:45 amSSW 17 32----29.39- 34.2- 29.1---
2024-02-22 12:35 amSSW 17 30----29.39- 34.2- 28.6---
2024-02-22 12:26 amSSW 17 28----29.39- 33.8- 28.2---
2024-02-22 12:05 amSSW 15 36----29.39- 34.2- 27.3---
2024-02-21 11:55 pmSSW 15 30----29.39- 34.0- 25.9---
2024-02-21 11:45 pmSSW 17 28----29.38- 33.6- 26.1---
2024-02-21 11:35 pmSSW 16 35----29.38- 34.9- 24.8---
2024-02-21 11:25 pmSSW 15 30----29.38- 35.1- 25.2---
2024-02-21 11:15 pmSSW 14 31----29.38- 34.7- 25.3---
2024-02-21 11:05 pmSSW 12 23----29.38- 34.5- 23.2---
2024-02-21 10:55 pmSSW 12 26----29.37- 34.2- 23.9---
2024-02-21 10:45 pmSSW 10 20----29.37- 33.4- 25.5---
2024-02-21 10:35 pm S 11 21----29.37- 33.3- 26.6---
2024-02-21 10:25 pm S 15 27----29.36- 33.1- 26.8---
2024-02-21 10:15 pm S 15 31----29.36- 32.5- 27.3---
2024-02-21 10:05 pm S 16 29----29.36- 32.2- 27.1---
2024-02-21 09:55 pmSSW 14 34----29.36- 32.0- 27.7---